SCP
0 0 0 1 1 0 0 0 0 0 0 0 0 0 0 0 0 0 0 0 0 0 0 0 0 0 0 0 0 0 0 0 0 0 0 0 0 0 0 0 0 0 0 0 0 0 0 0 0
0 0 1 1 0 0 0 0 0 0 0 0 0 0 0 0 0 0 0 0 0 0 0 0 0 0 0 0 0 0 0 0 0 0 0 0 0 0 0 0 0 0 0 0 0 0 0 0 0
0 1 1 1 0 0 0 0 0 0 0 0 0 0 0 0 0 0 0 0 0 0 0 0 0 0 0 0 0 0 0 0 0 0 0 0 0 0 0 0 0 0 0 0 0 0 0 0 0
1 1 1 0 0 0 0 0 0 0 0 0 0 0 0 0 0 0 0 0 0 0 0 0 0 0 0 0 0 0 0 0 0 0 0 0 0 0 0 0 0 0 0 0 0 0 0 0 0
1 1 1 0 0 0 0 0 0 0 0 0 0 0 0 0 0 0 0 0 0 0 0 0 0 0 0 0 0 0 0 0 0 0 0 0 0 0 0 0 0 0 0 0 0 0 0 0 0
1 1 0 0 0 0 0 0 0 0 0 0 0 0 0 0 0 0 0 0 0 0 0 0 0 0 0 0 0 0 0 0 0 0 0 0 0 0 0 0 0 0 0 0 0 0 0 0 0
1 0 0 0 0 0 0 0 0 0 0 0 0 0 0 0 0 0 0 0 0 0 0 0 0 0 0 0 0 0 0 0 0 0 0 0 0 0 0 0 0 0 0 0 0 0 0 0 0
0 0 0 0 0 0 0 0 0 0 0 0 0 0 0 0 0 0 0 0 0 0 0 0 0 0 0 0 0 0 0 0 0 0 0 0 0 0 0 0 0 0 0 0 0 0 0 0 0
0 0 0 0 0 0 0 0 0 0 0 0 0 0 0 0 0 0 0 0 0 0 0 0 0 0 0 0 0 0 0 0 0 0 0 0 0 0 0 0 0 0 0 0 0 0 0 0 0
0 0 0 0 0 0 0 0 0 0 0 0 0 0 0 0 0 0 0 0 0 0 0 0 0 0 0 0 0 0 0 0 0 0 0 0 0 0 0 0 0 0 0 0 0 0 0 0 0
0 0 0 0 0 0 0 0 0 0 0 0 0 0 0 0 0 0 0 0 0 0 0 0 0 0 0 0 0 0 0 0 0 0 0 0 0 0 0 0 0 0 0 0 0 0 0 0 0
0 0 0 0 0 0 0 0 0 0 0 0 0 0 0 0 0 0 0 0 0 0 0 0 0 0 0 0 0 0 0 0 0 0 0 0 0 0 0 0 0 0 0 0 0 0 0 0 0
0 0 0 0 0 0 0 0 0 0 0 0 0 0 0 0 0 0 0 0 0 0 0 0 0 0 0 0 0 0 0 0 0 0 0 0 0 0 0 0 0 0 0 0 0 0 0 0 0
0 0 0 0 0 0 0 0 0 0 0 0 0 0 0 0 0 0 0 0 0 0 0 0 0 0 0 0 0 0 0 0 0 0 0 0 0 0 0 0 0 0 0 0 0 0 0 0 0
0 0 0 0 0 0 0 0 0 0 0 0 0 0 0 0 0 0 0 0 0 0 0 0 0 0 0 0 0 0 0 0 0 0 0 0 0 0 0 0 0 0 0 0 0 0 0 0 0
0 0 0 0 0 0 0 0 0 0 0 0 0 0 0 0 0 0 0 0 0 0 0 0 0 0 0 0 0 0 0 0 0 0 0 0 0 0 0 0 0 0 0 0 0 0 0 0 0
0 0 0 0 0 0 0 0 0 0 0 0 0 0 0 0 0 0 0 0 0 0 0 0 0 0 0 0 0 0 0 0 0 0 0 0 0 0 0 0 0 0 0 0 0 0 0 0 0
0 0 0 0 0 0 0 0 0 0 0 0 0 0 0 0 0 0 0 0 0 1 0 0 0 0 0 0 0 0 0 0 0 0 0 0 0 0 0 0 0 0 0 0 0 0 0 0 0
0 0 0 0 0 0 0 0 0 0 0 0 0 0 0 0 0 0 0 0 1 1 1 1 0 0 0 0 0 0 0 0 0 0 0 0 0 0 0 0 0 0 0 0 0 0 0 0 0
0 0 0 0 0 0 0 0 0 0 0 0 0 0 0 0 1 1 0 0 1 1 1 1 1 0 0 0 0 0 0 0 0 0 0 0 0 0 0 0 0 0 0 0 0 0 0 0 0
0 0 0 0 0 0 0 0 0 0 0 0 0 0 0 0 1 1 1 0 1 1 1 1 1 1 0 0 0 0 0 0 0 0 0 0 0 0 0 0 0 0 0 0 0 0 0 0 0
0 0 0 0 0 0 0 0 0 0 0 0 0 0 0 1 1 1 1 1 1 1 1 1 1 1 1 0 0 0 0 0 0 0 0 0 0 0 0 0 0 0 0 0 0 0 0 0 0
0 0 0 0 0 0 0 0 0 0 0 0 0 0 0 1 1 1 1 1 1 1 1 1 1 1 1 1 0 0 0 0 0 0 0 0 0 0 0 0 0 0 0 0 0 0 0 0 0
0 0 0 0 0 0 0 0 0 0 0 0 0 0 0 1 1 1 1 1 1 1 1 1 1 1 1 1 0 0 0 0 0 0 0 0 0 0 0 0 0 0 0 0 0 0 0 0 0
0 0 0 0 0 0 0 0 0 0 0 0 1 1 0 0 1 1 1 1 1 1 1 1 1 1 1 1 1 0 0 0 0 0 0 0 0 0 0 0 0 0 0 0 0 0 0 0 0
0 0 0 0 0 0 0 0 0 0 0 0 0 0 0 0 1 1 1 1 1 1 1 1 1 1 1 1 1 1 1 0 0 0 0 0 0 0 1 1 1 1 0 0 0 0 0 0 0
0 0 0 0 0 0 0 0 0 0 0 0 0 0 0 0 0 1 1 1 1 1 1 1 1 1 1 1 1 1 1 0 0 0 0 0 0 0 1 1 1 1 0 0 0 0 0 0 1
0 0 0 0 0 0 0 0 0 0 0 0 0 0 0 0 0 1 1 1 1 1 1 1 1 2 1 1 1 1 1 1 1 1 1 1 0 0 1 1 1 1 1 0 0 0 1 1 1
0 0 0 0 0 0 0 0 0 0 0 0 0 0 0 0 1 1 1 1 1 1 1 1 1 2 2 1 1 1 1 1 1 1 1 1 1 1 1 1 1 1 1 1 1 1 1 1 1
0 0 0 0 0 0 0 0 0 0 0 0 0 0 0 0 1 1 1 1 1 1 1 1 1 2 2 2 1 1 1 1 1 1 1 1 1 1 1 1 1 1 1 1 1 1 1 1 1
Wind_Speed
9 11 10 7 5 2 9 11 12 11 11 10 10 11 15 14 10 9 7 10 11 12 12 12 12 12 12 11 11 11 11 10 10 10 10 10 10 10 9 10 11 12 13 15 15 15 14 14 14
9 12 9 5 3 4 11 11 12 11 10 9 11 13 14 15 12 10 8 9 11 12 12 12 13 12 12 11 11 11 11 10 10 10 10 10 10 9 9 11 12 13 14 15 15 15 14 14 13
10 12 7 4 3 8 11 10 10 10 9 9 12 14 12 11 12 9 9 10 12 12 12 12 13 12 12 11 10 10 10 10 9 9 9 9 9 10 10 11 11 13 14 15 15 15 14 13 12
7 7 6 0 9 11 10 9 9 10 9 9 10 12 13 11 10 10 11 10 11 12 13 13 13 12 11 10 10 9 9 9 8 9 9 9 10 11 11 11 11 12 13 14 15 14 14 13 12
8 6 3 5 10 10 9 9 9 10 9 11 14 15 13 11 12 12 10 10 10 12 12 12 13 12 11 10 9 9 8 8 8 8 9 9 10 11 11 11 12 12 13 14 14 14 13 11 10
5 4 1 7 10 10 9 9 10 11 10 11 14 15 12 11 10 10 9 10 10 12 13 11 12 11 10 10 9 9 8 8 8 10 10 10 11 11 11 11 11 12 12 13 13 13 12 10 8
7 4 3 8 10 10 10 9 9 10 9 10 13 14 12 10 10 11 10 10 11 12 11 9 9 9 10 10 9 9 8 8 9 10 10 10 11 11 11 11 11 11 11 12 12 12 11 10 8
4 3 4 8 10 10 10 10 9 9 10 9 9 10 11 10 10 10 11 10 10 10 9 8 8 7 6 6 8 9 8 7 9 9 9 10 10 11 11 10 10 11 10 10 11 11 10 9 7
3 1 5 8 9 9 9 9 10 10 10 9 11 13 14 13 11 10 10 9 8 8 7 7 8 6 5 6 7 6 7 6 7 7 8 7 6 7 7 10 10 10 9 9 10 10 10 8 7
1 3 8 8 9 10 8 8 9 9 10 11 13 15 14 13 11 10 9 9 8 7 7 6 7 6 4 5 5 3 4 4 3 3 4 3 4 5 7 10 11 10 9 9 9 10 9 6 4
2 4 7 8 7 9 9 8 7 9 9 11 13 13 12 12 10 9 8 8 8 6 6 8 7 4 5 4 3 2 2 2 3 4 4 3 3 4 5 4 6 6 7 5 6 5 3 3 3
3 5 5 7 6 8 8 8 10 11 11 12 13 13 12 10 10 9 9 9 8 6 6 8 8 5 4 4 3 2 1 2 2 3 4 4 3 3 4 3 4 3 3 3 3 2 3 2 3
1 4 5 6 5 6 8 9 10 12 12 13 13 12 11 9 9 9 9 9 8 6 7 7 8 6 5 4 2 2 2 2 3 3 3 5 3 4 4 3 3 3 3 3 2 2 3 3 2
2 4 4 5 5 5 8 8 9 11 13 13 12 11 9 9 9 9 9 8 8 7 7 7 8 7 5 3 1 1 2 2 3 4 4 4 3 4 4 4 3 3 3 3 2 3 3 2 2
1 1 1 4 6 6 6 7 8 10 12 12 12 11 10 9 9 8 9 7 7 7 7 6 8 7 5 4 2 2 2 3 3 4 4 3 3 4 3 3 3 3 3 3 2 2 2 2 3
5 3 4 5 7 8 6 7 9 11 12 11 11 11 10 9 9 8 9 7 7 7 6 4 6 7 4 3 2 2 2 3 3 4 4 3 3 4 3 3 3 3 3 3 3 2 2 2 2
7 6 6 5 5 7 6 8 11 12 12 12 11 11 10 10 9 9 10 9 8 7 6 4 5 6 5 4 2 2 2 3 2 3 3 4 3 3 2 2 3 3 2 2 3 3 2 2 2
4 6 5 5 6 5 5 8 10 11 11 12 12 11 11 11 9 9 10 10 9 8 6 5 4 5 5 4 2 2 2 2 2 3 3 4 3 3 2 3 4 3 2 2 2 3 2 1 1
8 10 6 4 5 4 4 7 9 12 11 12 12 12 11 11 11 11 10 10 10 9 7 6 5 5 3 3 3 2 2 2 2 3 4 4 3 3 2 2 3 2 2 2 3 3 3 2 2
12 10 6 3 4 3 2 4 7 10 10 10 12 12 12 12 12 11 11 10 11 10 8 7 6 6 4 3 2 2 3 2 3 2 4 4 3 3 3 2 2 3 3 3 3 2 2 1 2
11 9 7 4 2 3 4 4 5 7 9 10 11 12 13 13 13 12 11 10 11 11 10 8 7 6 5 4 3 3 2 1 2 3 3 3 3 3 1 3 2 2 2 3 3 3 3 2 2
10 9 8 6 6 5 6 4 6 8 9 10 10 10 11 13 14 13 12 10 11 11 11 9 8 6 5 5 4 4 4 3 3 3 3 3 3 3 3 2 2 1 1 2 3 3 2 2 2
9 9 9 9 8 7 6 4 5 8 9 9 10 9 10 12 14 14 13 12 11 12 11 9 8 7 6 5 4 3 3 3 3 3 3 3 3 3 3 3 3 2 1 2 2 2 2 1 1
9 11 10 10 8 7 8 6 4 7 9 9 11 10 10 11 12 13 13 12 11 11 11 11 9 7 6 5 4 4 4 3 3 3 4 3 3 3 3 3 3 3 2 2 2 2 2 2 1
11 10 7 8 7 8 7 5 3 5 7 8 10 11 11 11 12 12 12 13 11 12 11 11 10 8 7 6 5 5 4 3 3 3 4 4 3 3 3 3 3 3 2 2 2 2 2 2 2
12 12 9 8 9 7 5 4 2 4 6 7 9 10 11 10 11 11 12 12 11 12 11 11 10 9 8 7 5 5 4 3 3 3 3 3 2 2 4 3 3 3 3 3 2 1 2 2 2
12 12 12 9 10 8 5 3 5 5 7 8 8 9 10 10 10 11 12 12 11 10 10 11 11 9 8 8 6 5 5 4 3 3 3 2 2 2 4 4 3 3 3 2 2 2 2 1 2
15 11 8 7 6 8 7 6 5 7 6 6 7 7 8 8 8 8 10 11 11 10 9 10 10 9 8 8 7 6 5 4 3 3 4 2 1 1 3 3 3 3 3 2 2 2 2 3 3
13 13 10 7 8 8 7 4 2 6 5 5 7 8 6 7 7 7 7 9 11 10 10 9 10 9 8 8 6 5 6 5 4 3 3 3 2 2 2 3 3 3 3 3 3 3 3 3 3
13 13 12 9 7 7 7 4 3 4 7 6 5 7 7 6 7 8 9 8 8 10 10 9 9 9 9 8 7 5 5 5 5 4 3 3 2 2 2 2 2 3 3 2 3 4 3 3 3
Wind_Direction
196 211 217 236 247 231 68 66 65 60 60 58 59 63 60 54 59 82 90 83 89 97 101 95 91 93 91 90 90 90 91 92 95 97 100 102 102 104 108 116 119 125 130 133 133 132 132 131 131
223 222 225 248 257 73 71 67 68 67 71 72 67 69 70 67 75 91 91 94 96 100 101 97 98 96 95 93 93 92 92 93 93 96 100 103 104 104 108 116 118 124 129 131 133 133 133 135 136
250 254 256 236 56 68 75 75 81 82 75 77 76 65 61 75 84 98 104 105 100 99 101 105 103 100 99 97 97 95 93 92 93 97 97 98 101 105 109 119 121 125 129 132 134 134 137 140 141
244 238 237 221 66 70 76 84 88 87 78 77 83 80 73 76 90 101 108 109 107 110 105 110 109 105 103 104 102 101 97 95 95 99 96 96 102 107 109 118 123 127 129 131 134 135 139 141 142
238 259 235 83 78 81 81 85 91 87 82 81 87 93 89 87 100 108 110 110 107 108 105 109 114 112 110 112 109 108 105 103 106 107 103 101 108 110 110 112 120 124 128 131 134 137 140 142 143
254 253 15 84 87 82 80 79 87 88 86 90 96 98 96 104 106 108 104 101 103 102 105 108 118 116 116 119 117 113 109 105 111 112 107 106 111 112 112 117 121 123 128 133 136 139 141 143 146
260 293 63 92 93 86 80 74 73 85 86 89 102 105 108 113 114 111 107 101 97 99 106 113 112 116 118 118 121 116 111 110 112 115 114 113 116 115 115 120 122 123 127 134 138 142 145 148 151
257 317 41 81 94 95 97 90 83 90 85 95 101 107 121 125 122 115 109 104 99 101 107 115 115 115 116 118 126 122 116 114 118 117 119 119 121 122 125 127 126 124 128 136 141 146 150 151 158
276 317 59 72 89 97 99 101 102 97 98 90 86 103 121 128 125 118 110 105 98 101 108 114 113 113 114 117 117 123 125 121 127 129 132 133 127 128 132 127 131 127 128 136 145 149 150 153 165
232 60 68 73 94 106 107 101 106 107 103 98 97 109 123 128 122 118 115 112 107 104 110 104 99 108 110 107 112 116 124 124 130 120 130 130 119 117 120 130 137 136 132 135 146 150 152 162 164
91 82 79 86 92 107 110 103 100 108 107 109 114 121 127 127 126 123 120 113 110 114 109 108 103 99 93 94 112 91 95 118 129 127 129 125 119 123 121 126 132 139 144 144 138 151 162 158 150
102 94 85 88 92 96 100 101 93 88 96 110 122 129 129 131 130 128 123 117 120 120 114 113 113 101 89 92 92 110 115 120 132 140 145 132 126 119 121 123 132 137 139 131 126 132 133 139 138
159 110 108 106 102 98 96 87 92 100 106 113 121 125 130 134 128 122 117 118 119 115 109 106 111 103 89 83 84 103 106 124 134 121 128 125 124 118 118 117 123 130 121 122 122 121 119 111 111
53 84 100 122 133 121 105 114 107 114 118 122 127 132 134 127 121 115 114 115 117 114 111 108 110 108 107 108 90 83 117 110 119 115 119 123 121 117 119 125 124 123 123 128 126 125 114 106 91
209 131 179 173 167 129 122 123 120 133 129 133 135 136 133 128 125 125 124 124 121 116 113 117 122 119 124 129 141 130 113 119 106 104 106 109 113 119 125 128 132 127 123 123 124 120 118 126 122
265 215 223 215 169 151 165 145 153 145 141 143 143 141 140 134 136 135 130 129 125 122 118 130 130 126 128 121 117 112 100 98 104 118 117 119 116 127 128 131 133 125 130 129 133 145 134 118 119
255 239 218 220 187 174 166 151 154 154 154 152 151 148 146 145 146 139 139 139 132 127 128 127 116 128 136 133 138 126 104 96 108 115 122 131 134 138 143 121 113 136 141 144 154 129 124 115 124
253 259 220 199 203 198 161 145 158 164 163 156 156 154 154 155 155 147 147 144 141 139 139 135 129 128 138 140 136 129 120 128 128 121 126 131 146 141 140 133 141 160 141 132 119 119 129 121 169
253 264 260 206 192 205 171 161 175 170 169 159 159 162 162 160 156 150 151 146 144 146 147 147 146 137 147 145 150 143 144 154 139 139 133 136 148 137 152 131 139 160 135 145 147 143 146 163 167
254 264 266 234 178 186 176 188 183 171 172 167 165 166 165 160 155 153 156 154 152 151 152 153 149 152 164 154 157 161 156 165 150 131 133 148 150 149 158 150 162 162 147 160 163 154 146 188 187
263 271 277 289 244 203 209 209 186 171 177 170 169 167 167 164 160 159 162 161 158 155 158 165 161 161 170 153 158 156 138 165 136 138 144 157 154 155 162 149 167 153 168 167 172 181 182 190 226
262 269 277 275 266 247 231 226 180 181 187 172 167 166 168 166 162 162 165 166 164 160 161 161 157 161 165 162 173 169 158 163 167 159 151 160 162 162 164 161 161 168 185 157 185 177 197 190 222
263 280 283 280 269 264 249 235 189 182 187 177 164 165 174 166 162 165 169 168 168 165 163 161 157 163 165 173 173 172 167 167 169 158 148 158 171 179 173 165 165 176 190 183 183 137 186 217 238
258 267 270 273 269 256 258 251 212 180 181 172 163 165 170 166 161 163 165 165 169 167 164 162 160 165 168 177 178 177 179 175 163 158 157 173 174 178 188 179 172 180 191 194 186 184 201 215 251
242 252 256 257 251 243 230 244 227 156 167 162 158 161 168 166 161 162 164 164 167 167 167 164 160 167 171 178 183 179 184 178 168 171 177 186 183 178 186 186 175 191 194 194 192 193 223 214 217
242 245 247 256 263 261 234 213 211 135 139 142 151 160 163 162 162 163 163 163 165 167 166 160 160 168 174 179 185 174 179 187 186 193 196 181 195 181 165 174 177 195 197 207 195 214 217 215 227
245 245 258 259 265 276 278 217 185 173 151 151 150 158 154 160 164 166 164 163 164 166 163 161 159 166 174 177 179 174 181 190 195 181 194 191 188 185 155 169 177 192 199 208 198 224 233 222 222
246 255 263 263 271 274 267 255 221 172 163 156 150 141 143 154 158 157 159 161 164 164 159 160 160 166 172 175 179 178 183 189 198 189 179 188 200 203 163 174 184 192 195 196 203 227 224 218 224
234 236 246 258 261 263 267 257 164 145 153 165 157 142 149 149 144 143 154 159 159 161 163 162 160 164 171 177 177 177 175 185 191 197 189 183 194 208 197 192 191 196 196 198 203 227 224 224 230
245 244 246 249 255 262 266 271 251 169 162 158 144 132 138 137 142 152 157 150 156 161 167 164 166 171 174 176 171 179 171 176 184 190 189 184 183 192 199 203 201 208 203 203 213 234 235 231 234